Theta_e
317 319 321 325 324 322 322 323 322 323 321 318 318 321 322 321 322 322 319 326 326 330 336 337 338 339 338 339 337 335 334 335 336 337 336 336 335 335 335 337 336 334 333 332 330 324 321 319 320
318 319 322 323 320 318 317 320 325 323 319 318 318 319 320 321 320 321 325 324 327 330 336 338 337 337 337 336 334 333 333 336 338 337 335 334 333 332 333 334 333 332 331 329 324 318 313 311 310
318 318 321 320 320 317 317 320 321 318 317 319 320 318 320 322 319 321 322 326 327 330 334 337 336 337 336 336 333 333 337 337 335 335 334 333 332 331 332 331 330 329 328 324 320 315 308 307 305
319 319 319 319 319 319 318 318 319 319 317 317 318 320 318 317 318 318 319 326 328 330 332 336 336 337 336 336 335 336 336 336 335 334 332 332 331 330 327 326 325 324 322 319 317 314 309 307 303
317 319 317 318 318 317 318 318 317 318 318 318 317 320 318 315 313 314 320 325 328 329 332 335 335 336 336 335 335 335 334 333 333 332 331 330 329 327 324 323 321 318 315 314 315 309 304 301 300
319 320 319 319 318 318 318 317 317 318 318 317 317 318 320 313 313 315 319 326 328 329 332 334 334 335 335 336 335 334 333 332 331 330 330 329 328 324 322 321 320 318 317 318 316 311 304 300 300
319 319 319 319 320 320 320 315 318 319 318 319 317 319 319 315 313 313 319 325 327 329 331 332 334 334 335 335 334 332 331 331 330 329 328 328 325 322 320 318 318 317 317 315 312 309 304 300 299
320 321 321 321 320 319 318 316 316 317 319 314 316 320 320 316 311 314 319 323 325 328 329 330 332 333 334 334 333 331 330 329 329 329 328 326 323 319 318 316 316 317 315 312 307 301 300 299 298
315 321 320 319 319 317 317 317 315 314 316 315 316 317 316 311 312 316 319 322 323 325 327 328 330 331 332 332 331 330 326 328 328 327 326 324 320 318 317 315 314 316 312 308 304 299 298 298 298
320 321 318 318 317 316 316 316 317 316 317 317 317 316 312 311 313 317 319 321 322 323 323 325 326 328 329 329 328 327 326 327 326 326 324 321 318 316 315 313 314 314 309 305 300 298 297 297 297
319 319 318 316 315 314 315 316 315 316 316 317 317 316 317 312 313 315 317 319 321 321 322 322 323 325 326 326 326 326 326 326 326 325 321 318 315 313 312 313 313 311 307 306 299 296 296 296 296
318 318 317 317 315 316 316 316 316 316 316 316 317 316 316 315 315 314 315 316 318 319 320 321 321 323 324 324 324 324 324 324 323 322 319 315 313 311 311 311 311 309 305 302 296 296 296 296 296
317 317 317 316 315 316 316 316 317 316 316 316 315 315 314 315 314 314 313 314 315 316 317 319 319 320 322 322 322 322 322 321 321 319 316 314 311 309 308 308 308 306 302 299 296 296 296 296 295
314 314 315 314 315 315 314 315 313 315 315 314 314 314 314 314 314 313 312 312 312 314 315 316 317 318 320 320 320 320 319 319 318 316 314 313 310 308 306 306 304 302 300 297 296 296 295 295 295
313 314 315 314 313 314 313 314 314 315 314 313 313 313 314 313 312 312 312 312 312 312 312 313 314 316 318 318 319 319 318 317 316 314 313 312 310 306 302 302 302 300 297 296 295 295 294 294 294
313 312 314 314 311 312 313 315 315 314 311 313 314 314 314 314 313 312 311 311 311 311 311 311 311 312 315 316 317 317 316 315 314 313 311 310 309 305 301 300 300 297 295 295 294 294 294 295 294
313 314 314 313 311 312 314 315 314 313 312 313 313 313 313 313 313 312 312 310 311 310 310 310 310 311 312 314 315 315 314 313 312 311 310 308 307 305 301 299 298 296 295 294 294 294 295 295 294
318 316 314 313 314 311 311 312 312 312 312 312 313 313 313 312 312 311 311 310 309 309 309 309 308 309 310 312 313 313 313 312 311 310 308 307 306 304 300 298 297 296 294 294 294 294 294 295 294
312 313 313 313 313 312 312 313 312 312 312 312 313 313 313 313 313 310 310 310 310 308 308 308 307 307 308 309 310 311 310 310 309 309 307 306 305 304 301 298 297 295 294 294 294 294 293 293 292
312 313 314 314 312 309 313 313 313 313 313 313 313 313 313 313 313 311 309 309 309 309 308 307 306 305 306 307 308 309 309 308 307 307 305 304 303 302 300 298 296 295 294 294 293 293 293 294 292
312 312 314 314 312 312 311 316 315 314 312 312 311 311 312 312 312 310 309 309 309 309 308 307 306 305 304 305 305 306 306 305 305 305 304 303 301 300 299 298 296 295 294 294 293 293 293 294 292
314 313 311 311 312 316 311 318 316 315 315 313 312 312 312 312 311 310 310 308 307 305 305 305 304 304 303 302 303 304 304 304 303 303 303 301 300 299 298 297 296 295 294 294 293 293 293 294 293
313 309 310 310 312 311 314 314 318 313 315 314 313 312 312 312 310 308 307 305 305 304 303 302 302 302 302 301 302 302 303 303 303 302 302 300 299 298 297 297 296 295 294 294 293 292 293 294 295
308 310 310 310 311 316 317 315 317 315 313 312 313 313 314 309 308 306 304 303 302 301 300 299 300 300 300 300 300 301 301 302 302 302 300 300 299 296 296 296 295 295 294 294 293 292 292 292 294
309 312 318 322 321 321 314 314 315 315 315 311 312 310 307 306 304 303 301 300 299 298 299 298 298 298 297 298 299 299 300 300 300 301 300 299 298 296 295 295 295 294 294 293 293 292 292 292 292
312 315 320 326 323 322 317 316 315 314 311 310 308 305 305 304 303 301 300 298 297 296 296 297 297 297 296 296 296 297 297 298 298 299 299 298 298 297 296 294 294 294 293 293 292 292 291 291 291
312 313 313 315 317 319 314 314 315 315 310 308 308 308 306 303 302 301 299 298 296 295 295 295 295 295 294 295 295 295 295 296 296 297 296 296 296 295 295 295 294 293 293 292 291 291 291 290 290
310 310 315 313 316 320 314 314 315 314 313 309 307 305 302 301 300 298 297 296 296 294 293 294 293 293 292 292 293 294 293 293 294 295 295 294 295 295 294 294 293 293 292 291 291 290 290 289 289
313 310 309 310 314 318 320 317 313 313 310 306 304 302 300 298 296 295 294 293 294 294 292 293 292 293 292 291 291 292 293 292 292 292 293 293 294 294 293 293 293 292 291 290 290 290 289 288 289
312 314 314 319 319 316 316 316 312 312 306 301 300 299 296 294 294 293 292 292 292 292 291 291 292 291 291 290 290 291 292 291 291 291 292 292 292 293 292 292 292 291 291 290 289 289 289 288 288
Wind_Speed
2 2 2 3 4 3 3 1 2 4 2 1 3 3 3 6 4 5 1 10 8 20 22 23 24 22 21 18 17 16 14 13 14 14 11 8 8 8 7 7 9 6 5 5 4 3 3 2 2
1 1 1 0 4 3 3 0 3 2 1 1 4 5 5 6 3 2 2 12 12 20 20 20 23 22 20 19 17 15 13 13 14 14 12 9 8 8 7 7 7 7 5 3 1 2 1 1 2
1 1 3 1 2 3 3 2 1 2 2 4 3 3 3 2 2 1 2 14 16 20 19 18 24 22 21 19 17 16 17 16 14 11 11 9 9 8 8 8 9 8 7 3 2 2 2 3 2
1 2 2 4 6 6 5 5 4 8 2 4 3 6 3 4 1 2 4 16 16 20 18 19 23 22 22 20 19 19 16 14 13 12 12 11 10 9 8 8 8 7 5 5 6 6 5 5 3
2 1 2 3 4 4 6 8 5 4 2 4 4 2 4 2 5 3 4 15 16 20 19 20 23 22 22 22 21 18 17 17 15 13 13 13 12 10 9 9 8 7 7 7 7 6 5 3 4
1 2 3 4 3 4 5 4 4 5 3 2 4 6 3 3 3 5 7 13 14 20 19 19 25 25 24 23 21 23 19 17 17 15 14 14 12 11 10 10 10 9 10 10 9 8 6 4 4
1 2 2 4 4 4 2 2 3 3 3 5 1 4 1 5 4 5 8 12 14 19 20 20 20 25 25 26 27 23 17 18 17 17 17 15 14 12 11 11 11 11 11 11 10 9 7 4 4
2 2 3 5 3 4 3 3 2 5 3 2 2 5 3 3 5 6 8 12 15 19 21 22 22 22 23 24 29 26 21 20 19 19 18 18 17 15 13 13 12 12 11 10 10 8 6 5 4
1 4 5 4 5 2 3 4 3 2 8 5 8 6 2 4 5 7 9 13 16 19 23 24 25 25 25 23 24 29 24 23 22 22 22 21 14 14 14 13 14 12 12 11 9 8 5 3 3
4 4 5 4 5 5 4 6 7 6 12 14 14 15 12 7 9 12 15 18 22 24 26 25 25 26 25 23 22 23 23 24 24 22 20 19 17 16 15 15 17 16 14 12 11 8 7 5 5
4 6 6 6 11 7 6 7 5 10 13 14 14 12 9 14 16 17 20 22 25 24 24 27 26 25 25 24 22 21 21 21 22 22 21 20 18 18 18 15 17 15 16 11 11 10 8 7 6
6 13 10 4 3 4 7 5 9 14 23 22 19 18 14 14 15 20 23 24 23 23 25 25 27 26 27 25 26 24 25 26 25 25 24 22 19 17 18 18 18 18 18 15 14 12 11 9 7
9 10 8 9 8 11 11 17 16 19 23 23 19 17 18 16 21 21 22 21 21 24 24 26 28 30 29 29 27 28 27 27 25 24 28 29 25 24 21 19 18 17 19 18 17 15 13 11 9
3 7 12 10 13 12 10 21 2 13 12 12 13 16 15 15 17 18 18 21 23 24 26 26 29 31 29 31 31 29 28 28 28 28 32 35 28 25 24 24 25 24 22 19 16 15 14 12 11
5 12 15 13 7 8 5 11 14 21 10 16 17 14 13 15 15 18 19 20 22 24 24 28 30 30 31 32 32 30 29 30 30 33 36 37 37 33 30 27 26 24 24 22 20 18 14 12 11
6 4 9 2 7 2 6 17 18 11 6 14 19 22 23 23 21 21 23 23 22 21 23 24 30 36 36 37 34 32 29 29 27 27 28 33 37 34 31 28 29 27 24 22 20 20 17 13 11
5 11 12 10 7 3 9 13 10 10 16 26 24 23 21 21 22 20 18 19 17 18 20 22 25 30 34 36 35 35 31 33 31 29 30 35 37 36 32 29 28 29 28 25 20 17 16 15 12
14 11 10 10 9 8 12 22 21 24 18 26 25 24 17 17 19 18 16 15 15 14 15 18 21 24 25 25 28 27 28 31 31 33 33 33 42 38 34 31 31 33 29 26 23 20 16 14 13
10 14 19 19 19 20 19 18 18 23 21 24 24 19 14 13 13 11 13 13 11 12 13 15 17 19 22 24 26 27 33 31 33 36 38 38 42 43 42 35 33 36 35 32 29 22 21 15 15
14 16 19 16 10 4 18 23 23 22 23 22 17 14 11 11 9 12 11 11 11 11 10 12 15 16 20 22 23 23 24 27 29 31 32 36 38 42 44 41 39 41 39 32 31 28 23 14 24
11 13 17 19 13 14 14 15 4 6 7 12 8 9 10 9 11 10 10 14 14 16 16 14 12 15 17 19 19 21 21 20 22 32 32 35 34 37 46 44 40 41 40 39 40 38 28 21 23
15 11 14 12 6 9 9 13 7 11 13 11 3 2 5 5 5 5 9 18 16 16 17 15 12 11 12 15 19 22 24 24 25 24 27 31 36 40 45 46 42 41 43 36 41 41 36 26 22
4 2 1 2 8 9 5 7 3 5 11 6 3 7 6 8 5 8 17 20 19 17 16 15 14 12 9 11 18 20 24 24 23 21 23 28 29 36 38 43 46 45 45 40 39 42 37 34 26
2 2 2 1 4 7 5 7 5 4 2 2 11 13 15 20 16 15 22 23 25 27 30 28 24 17 12 7 12 19 23 22 22 21 20 21 25 28 35 38 42 41 42 45 44 43 42 37 27
4 4 5 6 5 10 4 10 7 10 12 8 16 19 22 22 20 20 22 26 29 33 32 29 29 28 22 14 12 15 20 22 23 24 23 22 23 24 31 38 41 42 43 42 42 42 41 42 35
8 8 7 6 12 20 12 17 7 3 7 13 17 16 16 18 17 18 19 24 27 30 31 31 29 28 29 25 18 14 16 19 22 23 24 25 26 27 28 34 37 38 37 39 40 39 41 40 38
5 6 5 8 14 12 17 29 21 18 8 12 14 16 16 14 15 15 19 24 24 25 27 27 28 28 28 29 28 23 18 18 22 23 23 27 28 29 32 35 39 39 39 40 37 37 38 38 40
5 3 9 6 9 19 20 21 16 15 8 7 9 10 10 13 15 15 19 21 21 21 22 23 25 25 26 27 27 26 24 20 22 24 25 27 28 28 31 33 36 37 38 38 39 37 36 37 37
9 8 7 7 8 12 17 17 15 5 8 6 7 7 9 10 11 11 13 16 18 20 20 21 24 24 26 28 27 27 28 25 21 21 25 27 28 28 30 32 36 37 39 39 41 40 37 42 38
16 21 20 9 10 12 15 21 21 7 7 9 5 5 5 7 9 11 15 16 19 21 24 26 23 22 24 25 24 23 24 27 27 24 23 26 27 26 30 30 32 34 37 37 39 40 38 41 40
Wind_Direction
312 326 328 251 253 260 266 214 301 257 233 128 145 230 306 312 287 330 185 182 177 175 173 181 181 181 182 181 179 178 175 172 163 162 170 170 167 167 148 147 166 162 161 127 129 66 35 17 353
305 307 283 249 260 277 61 290 238 338 1 193 215 226 252 287 260 278 226 187 175 174 175 179 184 186 190 194 188 184 178 167 167 168 163 183 185 179 164 159 163 171 153 164 108 333 3 10 30
184 83 264 291 268 318 342 202 7 4 279 232 244 253 295 250 201 270 212 173 172 178 180 184 186 187 192 197 193 185 179 180 189 190 178 200 201 190 166 156 157 151 148 142 136 124 109 99 76
227 165 129 260 277 275 267 310 284 297 205 225 279 259 225 255 276 154 185 175 174 180 183 191 187 191 193 194 189 186 181 182 178 194 203 209 199 187 173 166 174 180 188 156 126 126 119 109 93
43 226 218 250 269 274 267 294 291 273 281 206 203 259 255 206 222 218 185 184 182 184 186 188 188 191 197 195 188 185 194 204 206 208 208 212 204 187 180 179 176 182 175 151 139 137 126 110 94
163 286 253 291 296 281 276 274 279 257 251 207 222 261 255 159 212 219 200 191 191 190 188 189 192 194 195 190 191 195 199 207 211 213 210 206 196 193 185 176 171 164 151 146 142 137 131 123 105
208 240 295 285 287 283 234 176 226 278 253 240 256 260 259 206 206 207 196 192 193 192 194 197 199 202 199 199 202 204 210 213 213 214 212 204 204 199 191 185 176 162 156 152 150 145 136 122 111
152 225 210 219 244 271 196 204 229 249 304 98 226 241 260 115 175 186 191 193 195 197 202 203 204 207 207 208 212 218 210 212 212 217 213 207 209 203 196 190 178 168 161 161 157 158 154 153 143
206 229 244 242 195 223 175 244 175 286 267 222 208 248 313 160 180 177 188 202 205 209 208 207 206 206 208 210 213 218 217 212 213 212 211 214 200 201 202 187 189 176 169 169 169 174 168 161 149
222 237 254 232 218 255 253 238 282 263 256 256 252 248 236 213 210 215 211 212 212 215 213 212 211 210 209 210 211 213 212 210 211 206 207 200 197 194 189 190 185 189 178 175 185 182 174 160 148
184 241 245 234 245 259 276 258 243 264 276 263 271 288 250 227 227 229 233 229 222 222 217 213 212 212 210 212 209 208 210 210 209 209 203 200 196 201 193 187 186 185 183 174 185 178 175 174 165
236 245 239 268 215 242 256 283 259 243 261 277 284 279 273 245 237 232 235 235 230 223 222 217 212 212 212 211 208 210 208 205 206 205 205 205 202 200 197 195 192 190 190 191 187 185 183 180 178
239 262 259 255 261 263 278 262 264 267 262 275 275 274 270 261 262 255 252 250 240 233 227 221 215 213 212 211 212 212 212 211 210 207 210 210 207 204 200 201 200 200 201 197 191 190 187 184 180
351 282 278 277 260 252 253 271 234 264 266 273 272 276 276 271 268 269 253 250 240 238 232 225 220 217 214 215 214 214 213 212 210 210 213 212 209 207 206 204 203 203 202 200 197 193 187 184 180
306 297 292 258 259 232 225 266 231 260 293 286 285 276 278 271 265 256 262 256 249 241 237 226 222 219 218 220 219 219 218 214 213 213 214 214 212 210 207 205 206 206 203 199 194 192 190 185 182
275 264 284 308 172 176 205 273 288 313 290 288 288 288 292 285 277 278 274 269 259 247 237 231 224 223 219 219 218 220 221 220 220 219 217 217 216 212 208 207 204 204 204 202 198 192 186 183 181
229 272 254 297 212 144 212 285 272 289 298 289 285 282 282 292 294 287 281 276 273 259 248 240 228 224 221 220 217 217 218 220 221 220 217 219 217 215 211 207 207 205 200 201 199 195 190 182 177
282 266 256 266 293 252 267 272 282 283 277 276 281 280 293 290 293 315 306 291 278 271 254 242 235 232 226 224 222 223 223 224 222 220 220 217 218 216 213 212 208 205 202 197 196 196 192 189 175
284 272 281 279 283 291 287 285 280 280 274 265 273 283 294 290 310 341 335 330 311 287 266 251 240 234 220 216 216 219 222 222 222 219 221 218 220 217 213 211 208 207 204 202 197 190 189 177 172
258 270 274 282 291 291 295 296 282 266 263 263 277 287 287 302 343 9 13 18 358 331 311 290 268 253 231 225 223 224 233 233 233 229 226 219 217 215 214 211 208 209 203 201 198 190 183 188 183
246 261 280 284 314 281 308 287 273 257 251 271 254 267 281 305 348 23 22 24 17 9 351 326 288 253 237 230 230 231 235 232 227 226 226 221 218 214 216 213 211 211 206 201 201 198 190 182 195
271 264 258 277 299 298 16 297 301 269 284 270 30 312 291 358 19 51 39 14 20 7 1 355 330 294 269 242 231 229 228 237 239 238 232 225 218 214 215 214 210 211 211 207 206 204 203 191 185
256 46 223 228 275 304 262 265 355 169 266 309 52 28 355 322 28 32 20 15 24 19 22 19 13 0 318 269 245 245 244 250 252 250 246 231 227 221 215 211 211 210 210 212 210 205 202 204 197
123 293 292 232 257 257 300 238 19 16 135 107 359 350 353 29 36 29 31 28 22 18 18 17 19 17 359 298 263 253 259 257 251 241 241 239 232 225 217 214 215 214 212 210 212 211 207 206 207
171 273 295 270 243 269 344 285 250 299 291 335 347 11 32 30 28 26 19 15 13 14 16 20 16 11 8 349 310 285 269 267 262 251 244 233 228 227 222 219 216 214 213 212 211 211 208 209 207
206 235 239 267 273 288 282 265 270 88 347 36 51 57 41 33 28 23 19 17 14 13 12 10 14 17 10 1 348 319 299 280 270 260 247 241 233 226 226 221 221 221 217 214 212 213 211 207 210
149 209 257 272 274 281 272 270 272 238 73 59 42 23 21 22 21 19 17 14 12 9 6 5 5 6 9 7 359 348 326 302 284 271 258 249 237 230 231 226 222 219 217 214 212 213 214 210 208
244 332 248 226 255 252 263 267 260 286 343 63 33 29 18 14 16 11 2 2 1 2 2 2 4 3 1 2 1 356 345 323 302 287 267 256 249 240 233 225 225 221 217 213 211 212 212 212 209
250 250 238 267 248 251 255 260 271 3 70 19 26 33 19 22 22 14 5 359 354 355 360 360 1 357 358 357 357 355 352 348 327 301 284 271 258 246 237 230 225 219 217 214 210 213 210 212 210
263 259 256 249 240 227 249 258 283 312 73 65 25 29 32 27 7 357 353 354 355 352 353 352 352 353 350 350 350 353 352 355 353 336 311 291 272 256 243 235 228 221 218 215 215 213 211 209 207